Skip Page Navigation
NASA JPL Caltech
NASA Logo - Jet Propulsion Laboratory + View the NASA Portal
+ Near-Earth Object (NEO) Program
Search JPL
JPL Home Earth Solar System Stars & Galaxies Technology
JPL Solar System Dynamics
BODIES ORBITS EPHEMERIDES TOOLS PHYSICAL DATA DISCOVERY FAQ SITE MAP
JPL Small-Body Database Browser
Search: [ help ]  
(2011 CY46)
Classification: Apollo [NEO, PHA]          SPK-ID: 3557486
Ephemeris | Orbit Diagram | Orbital Elements | Physical Parameters | Close-Approach Data ]

[ hide orbit diagram ]
Orbit Diagram
Note: Make sure you have Java enabled on your browser to see the applet. This applet is provided as a 3D orbit visualization tool. The applet was implemented using 2-body methods, and hence should not be used for determining accurate long-term trajectories (over several years or decades) or planetary encounter circumstances. For accurate long-term ephemerides, please instead use our Horizons system.
Orbit Viewer

Additional Notes: the orbits shown in the applet are color coded. The planets are white lines, and the asteroid/comet is a blue line. The bright white line indicates the portion of the orbit that is above the ecliptic plane, and the darker portion is below the ecliptic plane. Likewise for the asteroid/comet orbit, the light blue indicates the portion above the ecliptic plane, and the dark blue the portion below the ecliptic plane.

Orbit Viewer applet originally written and kindly provided by Osamu Ajiki (AstroArts), and further modified by Ron Baalke (JPL).


Orbital Elements at Epoch 2456400.5 (2013-Apr-18.0) TDB
Reference: JPL 27 (heliocentric ecliptic J2000)
 Element Value Uncertainty (1-sigma)   Units 
e .6118503454828356 6.1069e-06  
a 2.150100203405993 3.0899e-05 AU
q .8345606511293212 1.1713e-06 AU
i 11.56958465148775 8.423e-05 deg
node 11.29331049705148 0.00012587 deg
peri 220.9736717319919 0.00012827 deg
M 226.5726002338677 0.0048274 deg
tp 2456827.304509180825
(2014-Jun-18.80450918)
0.024642 JED
period 1151.559751403456
3.15
0.024824
6.796e-05
d
yr
n .3126194707319809 6.739e-06 deg/d
Q 3.465639755682665 4.9805e-05 AU
  Orbit Determination Parameters
   # obs. used (total)      189  
   data-arc span      192 days  
   first obs. used      2011-02-11  
   last obs. used      2011-08-22  
   planetary ephem.      DE405  
   SB-pert. ephem.      SB405-CPV-2  
   condition code      4  
   fit RMS      .37303  
   data source      ORB  
   producer      Otto Matic  
   solution date      2011-Sep-14 21:05:08  

Additional Information
 Earth MOID = .0424153 AU 
 T_jup = 3.416 
[ show covariance matrix ]

Ephemeris | Orbit Diagram | Orbital Elements | Physical Parameters | Close-Approach Data ]

Physical Parameter Table
Parameter Symbol Value Units Sigma Reference Notes
absolute magnitude H 19.889 mag .38925 27 autocmod 2.5a
rotation period rot_per 5.567 h n/a Asteroid Lightcurve DataBase (Rev. 2013-May-01) Published Reference List:
[Skiff, B.A. (2011) Posting on CALL web site. http://www.minorplanet.info/call.html]

[ show close-approach data ]
Ephemeris | Orbit Diagram | Orbital Elements | Physical Parameters | Close-Approach Data ]
ABOUT SSD CREDITS/AWARDS PRIVACY/COPYRIGHT GLOSSARY LINKS
FirstGov 2013-May-22 02:13 UT
(server date/time)  
NASA Home Page
Site Manager:   Donald K. Yeomans
Webmaster  Alan B. Chamberlin